Radiation Dose at Monitoring Post of Fukushima Daini Nuclear Power Station
Date,Time,MP-1(microSv/h),MP-2(microSv/h),MP-3(microSv/h),MP-4(microSv/h),MP-5(microSv/h),MP-6(microSv/h),MP-7(microSv/h),Wind Direction,Wind Velocity(m/s),Rain
2020/06/19,00:00,0.179,0.164,0.270,0.255,0.251,0.141,0.086,south-southwest,2.4,No
2020/06/19,00:10,0.181,0.165,0.269,0.258,0.252,0.141,0.086,south-southwest,2.1,No
2020/06/19,00:20,0.180,0.165,0.268,0.256,0.252,0.141,0.086,south-southwest,2.0,No
2020/06/19,00:30,0.180,0.165,0.268,0.258,0.249,0.141,0.087,south,1.6,No
2020/06/19,00:40,0.180,0.163,0.271,0.256,0.252,0.143,0.087,south-southeast,1.6,No
2020/06/19,00:50,0.179,0.166,0.268,0.257,0.248,0.141,0.087,south,1.2,No
2020/06/19,01:00,0.181,0.165,0.271,0.257,0.253,0.141,0.087,south-southeast,1.2,No
2020/06/19,01:10,0.180,0.166,0.270,0.257,0.251,0.143,0.087,south-southwest,1.0,No
2020/06/19,01:20,0.181,0.165,0.271,0.258,0.252,0.142,0.088,southwest,1.1,No
2020/06/19,01:30,0.179,0.166,0.269,0.257,0.252,0.142,0.086,west,1.7,No
2020/06/19,01:40,0.181,0.164,0.270,0.258,0.250,0.141,0.088,west,2.0,No
2020/06/19,01:50,0.180,0.165,0.270,0.256,0.254,0.142,0.086,west,1.6,No
2020/06/19,02:00,0.182,0.166,0.269,0.258,0.251,0.141,0.086,west,1.1,No
2020/06/19,02:10,0.181,0.166,0.271,0.257,0.254,0.141,0.087,north-northwest,1.1,No
2020/06/19,02:20,0.180,0.165,0.269,0.258,0.251,0.142,0.087,north-northwest,1.7,No
2020/06/19,02:30,0.181,0.165,0.271,0.256,0.252,0.141,0.088,north,1.5,No
2020/06/19,02:40,0.179,0.165,0.270,0.258,0.252,0.142,0.086,north,1.6,No
2020/06/19,02:50,0.181,0.165,0.272,0.257,0.252,0.142,0.087,north-northeast,2.0,No
2020/06/19,03:00,0.180,0.166,0.270,0.257,0.253,0.141,0.087,north,3.8,No
2020/06/19,03:10,0.181,0.166,0.270,0.258,0.250,0.142,0.087,north-northwest,5.7,No
2020/06/19,03:20,0.180,0.165,0.270,0.257,0.253,0.142,0.087,north,4.7,No
2020/06/19,03:30,0.181,0.165,0.269,0.259,0.251,0.142,0.087,north,4.4,No
2020/06/19,03:40,0.181,0.166,0.271,0.256,0.253,0.142,0.087,north,5.0,No
2020/06/19,03:50,0.178,0.165,0.269,0.258,0.252,0.143,0.086,north,4.9,No
2020/06/19,04:00,0.181,0.165,0.271,0.256,0.251,0.140,0.087,north-northwest,5.0,No
2020/06/19,04:10,0.180,0.164,0.269,0.259,0.253,0.143,0.087,north-northwest,5.5,No
2020/06/19,04:20,0.180,0.163,0.272,0.256,0.250,0.141,0.087,north-northwest,5.5,No
2020/06/19,04:30,0.179,0.164,0.269,0.259,0.252,0.141,0.088,north-northwest,5.6,No
2020/06/19,04:40,0.179,0.164,0.270,0.257,0.250,0.142,0.087,north-northwest,5.5,No
2020/06/19,04:50,0.179,0.165,0.269,0.258,0.251,0.143,0.087,north-northwest,4.7,No
2020/06/19,05:00,0.179,0.164,0.270,0.257,0.252,0.141,0.086,north-northwest,5.3,No
2020/06/19,05:10,0.180,0.166,0.269,0.256,0.249,0.141,0.086,north-northwest,5.5,No
2020/06/19,05:20,0.179,0.163,0.268,0.257,0.252,0.142,0.087,north-northwest,5.3,No
2020/06/19,05:30,0.180,0.165,0.271,0.256,0.251,0.142,0.087,north,4.1,Yes
2020/06/19,05:40,0.181,0.165,0.269,0.259,0.253,0.143,0.087,north,4.0,Yes
2020/06/19,05:50,0.181,0.168,0.272,0.258,0.254,0.144,0.090,north,4.0,Yes
2020/06/19,06:00,0.185,0.168,0.271,0.261,0.255,0.145,0.091,north-northwest,3.5,Yes
2020/06/19,06:10,0.182,0.169,0.273,0.260,0.255,0.146,0.092,north-northwest,4.9,Yes
2020/06/19,06:20,0.186,0.169,0.272,0.262,0.256,0.147,0.092,north-northwest,6.3,Yes
2020/06/19,06:30,0.184,0.170,0.274,0.262,0.257,0.147,0.092,north-northwest,5.9,Yes
2020/06/19,06:40,0.187,0.169,0.273,0.262,0.254,0.147,0.093,north-northwest,5.2,Yes
2020/06/19,06:50,0.184,0.172,0.276,0.261,0.258,0.149,0.094,north-northwest,4.7,Yes
2020/06/19,07:00,0.187,0.171,0.275,0.262,0.255,0.149,0.095,north-northwest,4.7,Yes
2020/06/19,07:10,0.187,0.172,0.274,0.262,0.258,0.149,0.095,north-northwest,4.5,Yes
2020/06/19,07:20,0.185,0.170,0.272,0.261,0.255,0.149,0.094,north-northwest,4.6,Yes
2020/06/19,07:30,0.184,0.170,0.273,0.260,0.255,0.146,0.092,north-northwest,4.4,Yes
2020/06/19,07:40,0.184,0.169,0.271,0.258,0.256,0.147,0.092,north-northwest,4.1,Yes
2020/06/19,07:50,0.184,0.168,0.271,0.259,0.252,0.147,0.091,north-northwest,5.2,Yes
2020/06/19,08:00,0.183,0.168,0.271,0.257,0.254,0.145,0.091,north-northwest,5.6,Yes
2020/06/19,08:10,0.184,0.169,0.271,0.259,0.252,0.147,0.091,north-northwest,6.1,Yes
2020/06/19,08:20,0.184,0.169,0.271,0.257,0.255,0.147,0.092,north-northwest,5.8,Yes
2020/06/19,08:30,0.185,0.171,0.269,0.259,0.253,0.148,0.094,north-northwest,6.0,Yes
2020/06/19,08:40,0.187,0.174,0.273,0.258,0.256,0.149,0.095,northwest,6.7,Yes
2020/06/19,08:50,0.188,0.172,0.270,0.258,0.256,0.150,0.096,northwest,6.2,Yes
2020/06/19,09:00,0.188,0.174,0.271,0.257,0.256,0.151,0.096,north,6.0,Yes
2020/06/19,09:10,0.185,0.172,0.268,0.256,0.256,0.151,0.097,east-northeast,3.1,Yes
2020/06/19,09:20,0.186,0.173,0.267,0.253,0.253,0.151,0.098,-,CALM,Yes
2020/06/19,09:30,0.185,0.173,0.264,0.251,0.254,0.148,0.098,northeast,6.9,Yes
2020/06/19,09:40,0.186,0.174,0.269,0.257,0.256,0.151,0.099,northeast,5.8,Yes
2020/06/19,09:50,0.184,0.173,0.267,0.256,0.260,0.150,0.098,northeast,3.3,Yes
2020/06/19,10:00,0.185,0.173,0.267,0.257,0.255,0.148,0.097,east-northeast,2.3,Yes
2020/06/19,10:10,0.182,0.171,0.266,0.255,0.257,0.148,0.097,northeast,1.4,Yes
2020/06/19,10:20,0.181,0.170,0.265,0.256,0.255,0.146,0.095,north-northeast,1.0,Yes
2020/06/19,10:30,0.181,0.168,0.264,0.252,0.252,0.145,0.094,north,0.6,No
2020/06/19,10:40,0.179,0.167,0.260,0.253,0.254,0.143,0.092,north-northeast,0.6,No
2020/06/19,10:50,0.179,0.163,0.263,0.250,0.249,0.142,0.090,north-northwest,0.9,No
2020/06/19,11:00,0.175,0.163,0.258,0.247,0.250,0.141,0.090,north-northwest,1.1,No
2020/06/19,11:10,0.176,0.161,0.259,0.249,0.250,0.138,0.089,north-northeast,1.2,No
2020/06/19,11:20,0.175,0.161,0.257,0.245,0.246,0.139,0.087,north-northeast,0.6,No
2020/06/19,11:30,0.174,0.161,0.255,0.246,0.249,0.137,0.087,northeast,0.9,No
2020/06/19,11:40,0.174,0.159,0.257,0.244,0.245,0.136,0.085,north-northwest,0.9,No
2020/06/19,11:50,0.172,0.159,0.254,0.244,0.244,0.136,0.084,north,1.3,No
2020/06/19,12:00,0.173,0.159,0.254,0.246,0.246,0.135,0.084,north,0.8,No
2020/06/19,12:10,0.172,0.157,0.254,0.243,0.244,0.134,0.083,north-northwest,1.7,No
2020/06/19,12:20,0.171,0.159,0.251,0.241,0.241,0.135,0.082,north,2.2,No
2020/06/19,12:30,0.173,0.158,0.254,0.244,0.244,0.134,0.084,north-northwest,2.3,No
2020/06/19,12:40,0.172,0.156,0.253,0.242,0.244,0.133,0.083,northwest,2.4,No
2020/06/19,12:50,0.171,0.158,0.252,0.241,0.242,0.133,0.083,northwest,1.9,No
2020/06/19,13:00,0.173,0.157,0.253,0.242,0.241,0.135,0.083,northwest,2.2,No
2020/06/19,13:10,0.171,0.157,0.255,0.243,0.246,0.132,0.083,north-northwest,2.5,No
2020/06/19,13:20,0.172,0.157,0.252,0.241,0.244,0.132,0.082,north-northwest,2.9,No
2020/06/19,13:30,0.172,0.156,0.251,0.243,0.243,0.134,0.083,north-northwest,2.4,No
2020/06/19,13:40,0.171,0.157,0.253,0.245,0.243,0.134,0.082,north-northwest,2.5,No
2020/06/19,13:50,0.174,0.158,0.252,0.242,0.244,0.133,0.082,north-northwest,3.1,No
2020/06/19,14:00,0.172,0.157,0.253,0.242,0.243,0.135,0.083,north-northwest,3.7,No
2020/06/19,14:10,0.170,0.158,0.255,0.243,0.242,0.135,0.083,north-northwest,2.8,No
2020/06/19,14:20,0.173,0.157,0.253,0.243,0.246,0.134,0.083,north-northwest,2.4,No
2020/06/19,14:30,0.171,0.158,0.253,0.243,0.246,0.135,0.084,north,2.2,No
2020/06/19,14:40,0.173,0.158,0.255,0.245,0.242,0.135,0.083,north,1.7,No
2020/06/19,14:50,0.172,0.157,0.253,0.243,0.245,0.134,0.083,north-northwest,1.2,No
2020/06/19,15:00,0.172,0.158,0.254,0.244,0.247,0.135,0.083,north,1.8,No
2020/06/19,15:10,0.173,0.158,0.256,0.244,0.244,0.136,0.082,northwest,1.3,No
2020/06/19,15:20,0.172,0.157,0.253,0.243,0.245,0.134,0.083,north-northwest,2.1,No
2020/06/19,15:30,0.173,0.159,0.255,0.245,0.246,0.135,0.084,north,2.0,No
2020/06/19,15:40,0.173,0.157,0.257,0.244,0.243,0.136,0.083,north,2.6,No
2020/06/19,15:50,0.171,0.158,0.254,0.242,0.244,0.134,0.083,north,3.0,No
2020/06/19,16:00,0.173,0.157,0.256,0.245,0.245,0.135,0.083,north,2.8,No
2020/06/19,16:10,0.171,0.157,0.255,0.245,0.244,0.135,0.083,north-northwest,3.6,Yes
2020/06/19,16:20,0.173,0.159,0.256,0.244,0.246,0.134,0.083,north,3.8,Yes
2020/06/19,16:30,0.176,0.161,0.258,0.247,0.247,0.138,0.085,north,4.0,Yes
2020/06/19,16:40,0.176,0.164,0.258,0.247,0.248,0.140,0.089,north,6.1,Yes
2020/06/19,16:50,0.180,0.166,0.262,0.250,0.253,0.142,0.091,north,6.2,Yes
2020/06/19,17:00,0.178,0.166,0.259,0.247,0.250,0.144,0.091,north,6.1,Yes
2020/06/19,17:10,0.179,0.166,0.261,0.250,0.254,0.143,0.093,north,6.4,Yes
2020/06/19,17:20,0.178,0.167,0.259,0.250,0.251,0.145,0.094,north,5.0,Yes
2020/06/19,17:30,0.179,0.168,0.262,0.251,0.253,0.144,0.094,north,6.4,Yes
2020/06/19,17:40,0.178,0.168,0.259,0.251,0.252,0.144,0.092,north,5.2,Yes
2020/06/19,17:50,0.179,0.167,0.261,0.249,0.252,0.145,0.093,north,4.7,Yes
2020/06/19,18:00,0.180,0.169,0.259,0.250,0.253,0.144,0.094,north,4.1,Yes
2020/06/19,18:10,0.180,0.168,0.261,0.249,0.253,0.146,0.095,north-northeast,5.8,Yes
2020/06/19,18:20,0.180,0.169,0.261,0.250,0.253,0.146,0.094,-,CALM,Yes
2020/06/19,18:30,0.181,0.168,0.261,0.248,0.251,0.148,0.096,north-northeast,7.3,Yes
2020/06/19,18:40,0.180,0.169,0.260,0.249,0.254,0.145,0.096,north,4.0,Yes
2020/06/19,18:50,0.180,0.169,0.260,0.248,0.252,0.146,0.096,-,CALM,Yes
2020/06/19,19:00,0.181,0.169,0.259,0.250,0.254,0.145,0.095,north,2.5,Yes
2020/06/19,19:10,0.179,0.167,0.259,0.247,0.252,0.146,0.095,north,2.8,Yes
2020/06/19,19:20,0.179,0.168,0.259,0.248,0.252,0.144,0.094,southwest,2.7,Yes
2020/06/19,19:30,0.177,0.166,0.257,0.246,0.251,0.143,0.095,-,CALM,Yes
2020/06/19,19:40,0.180,0.167,0.259,0.247,0.250,0.144,0.094,northwest,3.1,Yes
2020/06/19,19:50,0.177,0.167,0.257,0.245,0.251,0.142,0.093,northwest,2.0,Yes
2020/06/19,20:00,0.178,0.165,0.258,0.246,0.249,0.142,0.092,northwest,2.9,Yes
2020/06/19,20:10,0.176,0.164,0.255,0.245,0.250,0.141,0.092,northwest,3.5,Yes
2020/06/19,20:20,0.175,0.164,0.257,0.244,0.247,0.140,0.092,north-northwest,5.1,Yes
2020/06/19,20:30,0.175,0.163,0.254,0.244,0.250,0.139,0.090,north-northwest,5.1,Yes
2020/06/19,20:40,0.175,0.163,0.256,0.243,0.247,0.139,0.090,north-northwest,3.9,Yes
2020/06/19,20:50,0.174,0.163,0.253,0.243,0.248,0.139,0.090,north,6.0,Yes
2020/06/19,21:00,0.174,0.162,0.256,0.241,0.247,0.138,0.090,north,4.3,Yes
2020/06/19,21:10,0.175,0.163,0.253,0.242,0.248,0.140,0.090,north,4.2,Yes
2020/06/19,21:20,0.173,0.162,0.255,0.243,0.247,0.138,0.089,north-northwest,4.6,Yes
2020/06/19,21:30,0.174,0.162,0.253,0.245,0.247,0.138,0.088,north-northwest,2.7,Yes
2020/06/19,21:40,0.172,0.161,0.255,0.242,0.248,0.137,0.088,northwest,3.3,Yes
2020/06/19,21:50,0.174,0.162,0.253,0.243,0.246,0.137,0.088,northwest,3.9,No
2020/06/19,22:00,0.171,0.160,0.256,0.240,0.247,0.138,0.088,northwest,4.1,No
2020/06/19,22:10,0.172,0.160,0.251,0.243,0.245,0.136,0.086,northwest,4.1,No
2020/06/19,22:20,0.170,0.159,0.254,0.241,0.247,0.136,0.086,northwest,3.7,No
2020/06/19,22:30,0.172,0.159,0.252,0.241,0.244,0.135,0.085,north-northwest,2.8,No
2020/06/19,22:40,0.169,0.158,0.253,0.241,0.246,0.133,0.084,north,4.1,No
2020/06/19,22:50,0.169,0.157,0.251,0.240,0.244,0.134,0.084,north,5.5,No
2020/06/19,23:00,0.169,0.156,0.251,0.239,0.244,0.134,0.083,north,6.7,No
2020/06/19,23:10,0.168,0.157,0.249,0.238,0.242,0.133,0.084,north,2.6,No
2020/06/19,23:20,0.169,0.155,0.251,0.240,0.242,0.132,0.082,north,3.3,No
2020/06/19,23:30,0.167,0.156,0.249,0.239,0.243,0.133,0.082,north-northwest,3.4,No
2020/06/19,23:40,0.169,0.155,0.248,0.239,0.240,0.131,0.081,north,5.6,No
2020/06/19,23:50,0.168,0.155,0.250,0.237,0.243,0.131,0.081,north-northwest,5.2,No
